Year,Month,Day,Hour,Minute,Value (Times are PST for temperature in C)
2015,06,28,00,00,22.20
2015,06,28,00,01,22.20
2015,06,28,00,02,22.20
2015,06,28,00,03,22.20
2015,06,28,00,04,22.30
2015,06,28,00,05,22.30
2015,06,28,00,06,22.30
2015,06,28,00,07,22.30
2015,06,28,00,08,22.30
2015,06,28,00,09,22.30
2015,06,28,00,10,22.20
2015,06,28,00,11,22.20
2015,06,28,00,12,22.30
2015,06,28,00,13,22.30
2015,06,28,00,14,22.30
2015,06,28,00,15,22.20
2015,06,28,00,16,22.20
2015,06,28,00,17,22.10
2015,06,28,00,18,21.90
2015,06,28,00,19,21.80
2015,06,28,00,20,21.90
2015,06,28,00,22,22.00
2015,06,28,00,23,22.10
2015,06,28,00,24,21.90
2015,06,28,00,25,21.90
2015,06,28,00,26,21.90
2015,06,28,00,27,21.90
2015,06,28,00,28,21.90
2015,06,28,00,29,22.10
2015,06,28,00,30,22.10
2015,06,28,00,31,22.20
2015,06,28,00,32,22.20
2015,06,28,00,33,22.20
2015,06,28,00,34,22.10
2015,06,28,00,35,22.10
2015,06,28,00,36,22.10
2015,06,28,00,37,22.10
2015,06,28,00,38,22.00
2015,06,28,00,39,21.90
2015,06,28,00,40,21.90
2015,06,28,00,41,21.90
2015,06,28,00,42,21.80
2015,06,28,00,43,21.80
2015,06,28,00,44,21.80
2015,06,28,00,45,21.80
2015,06,28,00,46,21.80
2015,06,28,00,47,21.80
2015,06,28,00,48,21.80
2015,06,28,00,49,21.80
2015,06,28,00,50,21.80
2015,06,28,00,51,21.80
2015,06,28,00,52,21.80
2015,06,28,00,53,21.70
2015,06,28,00,54,21.70
2015,06,28,00,55,21.70
2015,06,28,00,56,21.70
2015,06,28,00,57,21.70
2015,06,28,00,58,21.70
2015,06,28,00,59,21.70
2015,06,28,01,00,21.70
2015,06,28,01,01,21.70
2015,06,28,01,02,21.70
2015,06,28,01,03,21.70
2015,06,28,01,04,21.60
2015,06,28,01,05,21.70
2015,06,28,01,06,21.60
2015,06,28,01,07,21.60
2015,06,28,01,08,21.60
2015,06,28,01,09,21.60
2015,06,28,01,10,21.50
2015,06,28,01,11,21.30
2015,06,28,01,12,21.10
2015,06,28,01,13,20.90
2015,06,28,01,14,21.00
2015,06,28,01,15,21.10
2015,06,28,01,16,21.10
2015,06,28,01,17,21.20
2015,06,28,01,18,21.30
2015,06,28,01,19,21.40
2015,06,28,01,20,21.40
2015,06,28,01,21,21.60
2015,06,28,01,22,21.60
2015,06,28,01,23,21.60
2015,06,28,01,24,21.70
2015,06,28,01,25,21.70
2015,06,28,01,26,21.70
2015,06,28,01,27,21.70
2015,06,28,01,28,21.70
2015,06,28,01,29,21.70
2015,06,28,01,30,21.70
2015,06,28,01,31,21.70
2015,06,28,01,32,21.70
2015,06,28,01,33,21.70
2015,06,28,01,34,21.70
2015,06,28,01,35,21.70
2015,06,28,01,36,21.80
2015,06,28,01,37,21.80
2015,06,28,01,38,21.80
2015,06,28,01,39,21.80
2015,06,28,01,40,21.80
2015,06,28,01,41,21.80
2015,06,28,01,42,21.80
2015,06,28,01,43,21.80
2015,06,28,01,44,21.80
2015,06,28,01,45,21.80
2015,06,28,01,46,21.70
2015,06,28,01,47,21.60
2015,06,28,01,48,21.60
2015,06,28,01,49,21.50
2015,06,28,01,50,21.50
2015,06,28,01,51,21.60
2015,06,28,01,52,21.60
2015,06,28,01,53,21.70
2015,06,28,01,54,21.80
2015,06,28,01,55,21.90
2015,06,28,01,56,21.90
2015,06,28,01,57,21.90
2015,06,28,01,58,21.80
2015,06,28,01,59,21.80
2015,06,28,02,00,21.80
2015,06,28,02,01,21.90
2015,06,28,02,02,21.90
2015,06,28,02,03,21.80
2015,06,28,02,04,21.80
2015,06,28,02,05,21.80
2015,06,28,02,06,21.90
2015,06,28,02,07,22.00
2015,06,28,02,08,22.00
2015,06,28,02,09,21.90
2015,06,28,02,10,21.90
2015,06,28,02,11,21.90
2015,06,28,02,12,21.80
2015,06,28,02,13,21.80
2015,06,28,02,14,21.80
2015,06,28,02,15,21.80
2015,06,28,02,16,21.80
2015,06,28,02,17,21.80
2015,06,28,02,18,21.90
2015,06,28,02,19,21.90
2015,06,28,02,20,21.90
2015,06,28,02,21,21.90
2015,06,28,02,22,21.90
2015,06,28,02,23,22.00
2015,06,28,02,24,22.00
2015,06,28,02,25,22.00
2015,06,28,02,26,22.00
2015,06,28,02,27,22.10
2015,06,28,02,28,22.10
2015,06,28,02,29,22.10
2015,06,28,02,30,22.10
2015,06,28,02,31,22.10
2015,06,28,02,32,22.10
2015,06,28,02,33,22.10
2015,06,28,02,34,22.10
2015,06,28,02,35,22.10
2015,06,28,02,36,22.20
2015,06,28,02,37,22.20
2015,06,28,02,38,22.20
2015,06,28,02,39,22.20
2015,06,28,02,40,22.20
2015,06,28,02,41,22.20
2015,06,28,02,42,22.20
2015,06,28,02,43,22.20
2015,06,28,02,44,22.10
2015,06,28,02,45,22.10
2015,06,28,02,46,22.00
2015,06,28,02,47,21.90
2015,06,28,02,48,21.90
2015,06,28,02,49,22.00
2015,06,28,02,50,22.00
2015,06,28,02,51,22.00
2015,06,28,02,52,22.10
2015,06,28,02,53,22.10
2015,06,28,02,54,22.20
2015,06,28,02,55,22.30
2015,06,28,02,56,22.30
2015,06,28,02,57,22.30
2015,06,28,02,58,22.30
2015,06,28,02,59,22.30
2015,06,28,03,00,22.30
2015,06,28,03,01,22.30
2015,06,28,03,02,22.30
2015,06,28,03,03,22.30
2015,06,28,03,04,22.30
2015,06,28,03,05,22.30
2015,06,28,03,06,22.20
2015,06,28,03,07,22.20
2015,06,28,03,08,22.20
2015,06,28,03,09,22.20
2015,06,28,03,10,22.10
2015,06,28,03,11,22.10
2015,06,28,03,12,22.10
2015,06,28,03,13,22.00
2015,06,28,03,14,22.00
2015,06,28,03,15,22.00
2015,06,28,03,16,22.00
2015,06,28,03,17,21.90
2015,06,28,03,18,21.90
2015,06,28,03,19,21.80
2015,06,28,03,20,21.80
2015,06,28,03,21,21.80
2015,06,28,03,22,21.80
2015,06,28,03,23,21.90
2015,06,28,03,24,21.90
2015,06,28,03,25,21.80
2015,06,28,03,26,21.80
2015,06,28,03,27,21.60
2015,06,28,03,28,21.50
2015,06,28,03,29,21.50
2015,06,28,03,30,21.50
2015,06,28,03,31,21.60
2015,06,28,03,32,21.60
2015,06,28,03,33,21.70
2015,06,28,03,34,21.70
2015,06,28,03,35,21.70
2015,06,28,03,36,21.70
2015,06,28,03,37,21.60
2015,06,28,03,38,21.60
2015,06,28,03,39,21.40
2015,06,28,03,40,21.40
2015,06,28,03,41,21.40
2015,06,28,03,42,21.40
2015,06,28,03,43,21.40
2015,06,28,03,44,21.40
2015,06,28,03,45,21.40
2015,06,28,03,46,21.40
2015,06,28,03,47,21.30
2015,06,28,03,49,21.10
2015,06,28,03,50,20.90
2015,06,28,03,51,20.80
2015,06,28,03,52,20.90
2015,06,28,03,53,21.10
2015,06,28,03,54,21.10
2015,06,28,03,55,21.20
2015,06,28,03,56,21.30
2015,06,28,03,57,21.30
2015,06,28,03,58,21.30
2015,06,28,03,59,21.40
2015,06,28,04,00,21.40
2015,06,28,04,01,21.60
2015,06,28,04,02,21.60
2015,06,28,04,03,21.70
2015,06,28,04,04,21.80
2015,06,28,04,05,21.90
2015,06,28,04,06,22.00
2015,06,28,04,07,21.90
2015,06,28,04,08,22.00
2015,06,28,04,09,22.10
2015,06,28,04,11,22.30
2015,06,28,04,12,22.30
2015,06,28,04,13,22.20
2015,06,28,04,14,22.20
2015,06,28,04,15,22.10
2015,06,28,04,16,22.00
2015,06,28,04,17,21.90
2015,06,28,04,18,21.80
2015,06,28,04,19,21.90
2015,06,28,04,20,21.90
2015,06,28,04,21,21.90
2015,06,28,04,22,21.90
2015,06,28,04,23,21.80
2015,06,28,04,24,21.80
2015,06,28,04,25,21.60
2015,06,28,04,26,21.50
2015,06,28,04,27,21.20
2015,06,28,04,28,21.10
2015,06,28,04,29,21.20
2015,06,28,04,30,21.20
2015,06,28,04,31,21.40
2015,06,28,04,32,21.60
2015,06,28,04,33,21.60
2015,06,28,04,34,21.70
2015,06,28,04,35,21.70
2015,06,28,04,36,21.70
2015,06,28,04,37,21.80
2015,06,28,04,38,21.80
2015,06,28,04,39,21.90
2015,06,28,04,40,21.90
2015,06,28,04,41,21.90
2015,06,28,04,42,21.80
2015,06,28,04,43,21.80
2015,06,28,04,44,21.80
2015,06,28,04,45,21.50
2015,06,28,04,46,21.40
2015,06,28,04,47,21.30
2015,06,28,04,48,21.30
2015,06,28,04,49,21.30
2015,06,28,04,50,21.40
2015,06,28,04,51,21.30
2015,06,28,04,52,21.30
2015,06,28,04,53,21.20
2015,06,28,04,54,21.20
2015,06,28,04,55,21.10
2015,06,28,04,56,21.10
2015,06,28,04,57,21.10
2015,06,28,04,58,21.20
2015,06,28,04,59,21.20
2015,06,28,05,00,21.20
2015,06,28,05,01,21.20
2015,06,28,05,02,21.20
2015,06,28,05,03,21.30
2015,06,28,05,04,21.40
2015,06,28,05,05,21.40
2015,06,28,05,06,21.40
2015,06,28,05,07,21.30
2015,06,28,05,08,21.10
2015,06,28,05,09,20.90
2015,06,28,05,10,20.80
2015,06,28,05,11,20.70
2015,06,28,05,12,20.70
2015,06,28,05,13,20.70
2015,06,28,05,14,20.70
2015,06,28,05,15,20.60
2015,06,28,05,16,20.60
2015,06,28,05,17,20.70
2015,06,28,05,18,20.80
2015,06,28,05,19,20.90
2015,06,28,05,20,21.10
2015,06,28,05,21,21.10
2015,06,28,05,22,21.10
2015,06,28,05,23,21.10
2015,06,28,05,24,21.10
2015,06,28,05,25,21.10
2015,06,28,05,26,21.10
2015,06,28,05,27,21.00
2015,06,28,05,28,20.80
2015,06,28,05,29,20.70
2015,06,28,05,30,20.70
2015,06,28,05,31,20.80
2015,06,28,05,32,20.90
2015,06,28,05,33,21.10
2015,06,28,05,34,21.10
2015,06,28,05,35,21.20
2015,06,28,05,36,21.30
2015,06,28,05,37,21.30
2015,06,28,05,38,21.50
2015,06,28,05,39,21.60
2015,06,28,05,40,21.70
2015,06,28,05,41,21.80
2015,06,28,05,42,21.80
2015,06,28,05,43,21.90
2015,06,28,05,44,21.80
2015,06,28,05,45,21.90
2015,06,28,05,46,22.00
2015,06,28,05,47,22.10
2015,06,28,05,48,22.00
2015,06,28,05,49,22.00
2015,06,28,05,50,22.00
2015,06,28,05,51,22.10
2015,06,28,05,52,21.90
2015,06,28,05,53,21.80
2015,06,28,05,54,21.80
2015,06,28,05,55,21.60
2015,06,28,05,56,21.60
2015,06,28,05,57,21.60
2015,06,28,05,58,21.60
2015,06,28,05,59,21.60
2015,06,28,06,00,21.70
2015,06,28,06,01,21.70
2015,06,28,06,02,21.80
2015,06,28,06,03,21.80
2015,06,28,06,04,21.80
2015,06,28,06,05,21.80
2015,06,28,06,06,21.80
2015,06,28,06,07,21.70
2015,06,28,06,08,21.70
2015,06,28,06,09,21.40
2015,06,28,06,10,21.30
2015,06,28,06,11,21.20
2015,06,28,06,12,21.10
2015,06,28,06,13,21.10
2015,06,28,06,14,21.10
2015,06,28,06,15,21.20
2015,06,28,06,16,21.40
2015,06,28,06,17,21.50
2015,06,28,06,18,21.60
2015,06,28,06,19,21.70
2015,06,28,06,20,21.80
2015,06,28,06,21,21.80
2015,06,28,06,22,21.90
2015,06,28,06,23,21.80
2015,06,28,06,24,21.80
2015,06,28,06,25,21.70
2015,06,28,06,26,21.70
2015,06,28,06,27,21.40
2015,06,28,06,28,21.40
2015,06,28,06,29,21.20
2015,06,28,06,30,21.20
2015,06,28,06,31,21.20
2015,06,28,06,32,21.20
2015,06,28,06,33,21.20
2015,06,28,06,34,21.30
2015,06,28,06,35,21.40
2015,06,28,06,36,21.60
2015,06,28,06,37,21.70
2015,06,28,06,38,21.70
2015,06,28,06,39,21.80
2015,06,28,06,40,21.80
2015,06,28,06,41,21.80
2015,06,28,06,42,21.90
2015,06,28,06,43,21.90
2015,06,28,06,44,22.00
2015,06,28,06,45,22.10
2015,06,28,06,46,22.10
2015,06,28,06,47,22.20
2015,06,28,06,48,22.20
2015,06,28,06,49,22.20
2015,06,28,06,50,22.20
2015,06,28,06,51,22.20
2015,06,28,06,52,22.10
2015,06,28,06,53,21.90
2015,06,28,06,54,21.60
2015,06,28,06,55,21.30
2015,06,28,06,56,21.10
2015,06,28,06,57,20.70
2015,06,28,06,58,20.40
2015,06,28,06,59,20.30
2015,06,28,07,00,20.10
2015,06,28,07,01,19.90
2015,06,28,07,02,19.80
2015,06,28,07,03,19.80
2015,06,28,07,04,19.70
2015,06,28,07,05,19.70
2015,06,28,07,06,19.70
2015,06,28,07,07,19.60
2015,06,28,07,08,19.60
2015,06,28,07,09,19.60
2015,06,28,07,10,19.70
2015,06,28,07,11,19.70
2015,06,28,07,12,19.70
2015,06,28,07,13,19.80
2015,06,28,07,14,19.80
2015,06,28,07,15,19.80
2015,06,28,07,16,19.90
2015,06,28,07,17,19.90
2015,06,28,07,18,20.00
2015,06,28,07,19,20.10
2015,06,28,07,20,20.20
2015,06,28,07,21,20.30
2015,06,28,07,22,20.40
2015,06,28,07,23,20.60
2015,06,28,07,24,20.70
2015,06,28,07,25,20.90
2015,06,28,07,26,21.10
2015,06,28,07,27,21.10
2015,06,28,07,28,21.10
2015,06,28,07,29,21.10
2015,06,28,07,30,21.10
2015,06,28,07,31,21.10
2015,06,28,07,32,21.20
2015,06,28,07,33,21.40
2015,06,28,07,34,21.50
2015,06,28,07,35,21.60
2015,06,28,07,36,21.70
2015,06,28,07,37,21.70
2015,06,28,07,38,21.90
2015,06,28,07,39,22.10
2015,06,28,07,40,22.30
2015,06,28,07,41,22.60
2015,06,28,07,42,22.70
2015,06,28,07,43,22.80
2015,06,28,07,44,22.90
2015,06,28,07,45,22.90
2015,06,28,07,46,22.90
2015,06,28,07,47,23.00
2015,06,28,07,48,23.10
2015,06,28,07,49,23.00
2015,06,28,07,50,23.00
2015,06,28,07,51,23.00
2015,06,28,07,52,23.10
2015,06,28,07,53,23.30
2015,06,28,07,54,23.30
2015,06,28,07,55,23.40
2015,06,28,07,56,23.50
2015,06,28,07,57,23.60
2015,06,28,07,58,23.60
2015,06,28,07,59,23.60
2015,06,28,08,00,23.70
2015,06,28,08,01,23.70
2015,06,28,08,02,23.70
2015,06,28,08,03,23.70
2015,06,28,08,04,23.70
2015,06,28,08,05,23.70
2015,06,28,08,06,23.80
2015,06,28,08,07,23.70
2015,06,28,08,08,23.70
2015,06,28,08,09,23.60
2015,06,28,08,10,23.50
2015,06,28,08,11,23.40
2015,06,28,08,12,23.40
2015,06,28,08,13,23.30
2015,06,28,08,14,23.30
2015,06,28,08,15,23.20
2015,06,28,08,16,23.20
2015,06,28,08,17,23.20
2015,06,28,08,18,23.20
2015,06,28,08,19,23.20
2015,06,28,08,20,23.30
2015,06,28,08,21,23.30
2015,06,28,08,22,23.30
2015,06,28,08,23,23.40
2015,06,28,08,24,23.50
2015,06,28,08,25,23.50
2015,06,28,08,26,23.50
2015,06,28,08,27,23.40
2015,06,28,08,28,23.50
2015,06,28,08,29,23.40
2015,06,28,08,30,23.30
2015,06,28,08,31,23.30
2015,06,28,08,32,23.30
2015,06,28,08,33,23.20
2015,06,28,08,34,23.20
2015,06,28,08,35,23.20
2015,06,28,08,36,23.20
2015,06,28,08,37,23.20
2015,06,28,08,38,23.10
2015,06,28,08,39,23.00
2015,06,28,08,40,22.90
2015,06,28,08,41,22.90
2015,06,28,08,42,22.80
2015,06,28,08,43,22.80
2015,06,28,08,44,22.80
2015,06,28,08,45,22.80
2015,06,28,08,46,22.80
2015,06,28,08,47,22.80
2015,06,28,08,48,23.00
2015,06,28,08,49,23.20
2015,06,28,08,50,23.30
2015,06,28,08,51,23.40
2015,06,28,08,52,23.50
2015,06,28,08,53,23.60
2015,06,28,08,54,23.60
2015,06,28,08,55,23.60
2015,06,28,08,56,23.60
2015,06,28,08,57,23.40
2015,06,28,08,58,23.30
2015,06,28,08,59,23.20
2015,06,28,09,00,23.20
2015,06,28,09,01,23.10
2015,06,28,09,02,22.90
2015,06,28,09,03,22.90
2015,06,28,09,04,22.80
2015,06,28,09,05,22.80
2015,06,28,09,06,22.80
2015,06,28,09,07,22.90
2015,06,28,09,08,23.10
2015,06,28,09,09,23.30
2015,06,28,09,10,23.40
2015,06,28,09,11,23.60
2015,06,28,09,12,23.80
2015,06,28,09,13,23.90
2015,06,28,09,14,24.10
2015,06,28,09,15,24.30
2015,06,28,09,16,24.40
2015,06,28,09,17,24.60
2015,06,28,09,18,24.70
2015,06,28,09,19,24.90
2015,06,28,09,20,25.10
2015,06,28,09,21,25.20
2015,06,28,09,22,25.30
2015,06,28,09,23,25.30
2015,06,28,09,24,25.40
2015,06,28,09,25,25.50
2015,06,28,09,26,25.60
2015,06,28,09,27,25.70
2015,06,28,09,28,25.70
2015,06,28,09,29,25.70
2015,06,28,09,30,25.70
2015,06,28,09,31,25.70
2015,06,28,09,32,25.70
2015,06,28,09,33,25.70
2015,06,28,09,34,25.80
2015,06,28,09,35,25.80
2015,06,28,09,36,25.80
2015,06,28,09,37,25.80
2015,06,28,09,38,25.90
2015,06,28,09,39,26.00
2015,06,28,09,40,26.10
2015,06,28,09,41,26.10
2015,06,28,09,42,26.20
2015,06,28,09,43,26.20
2015,06,28,09,44,26.30
2015,06,28,09,45,26.30
2015,06,28,09,46,26.40
2015,06,28,09,47,26.40
2015,06,28,09,48,26.40
2015,06,28,09,49,26.50
2015,06,28,09,50,26.50
2015,06,28,09,51,26.50
2015,06,28,09,52,26.40
2015,06,28,09,53,26.40
2015,06,28,09,54,26.40
2015,06,28,09,55,26.40
2015,06,28,09,56,26.50
2015,06,28,09,57,26.60
2015,06,28,09,58,26.60
2015,06,28,09,59,26.60
2015,06,28,10,00,26.70
2015,06,28,10,01,26.60
2015,06,28,10,02,26.60
2015,06,28,10,03,26.60
2015,06,28,10,04,26.60
2015,06,28,10,05,26.70
2015,06,28,10,06,26.80
2015,06,28,10,07,27.00
2015,06,28,10,08,27.20
2015,06,28,10,09,27.30
2015,06,28,10,10,27.40
2015,06,28,10,11,27.40
2015,06,28,10,12,27.50
2015,06,28,10,13,27.50
2015,06,28,10,14,27.50
2015,06,28,10,15,27.40
2015,06,28,10,16,27.30
2015,06,28,10,17,27.30
2015,06,28,10,18,27.10
2015,06,28,10,19,27.10
2015,06,28,10,20,27.00
2015,06,28,10,21,26.90
2015,06,28,10,22,26.90
2015,06,28,10,23,26.80
2015,06,28,10,24,26.70
2015,06,28,10,25,26.50
2015,06,28,10,26,26.40
2015,06,28,10,27,26.30
2015,06,28,10,28,26.30
2015,06,28,10,29,26.20
2015,06,28,10,30,26.20
2015,06,28,10,31,26.20
2015,06,28,10,32,26.30
2015,06,28,10,33,26.50
2015,06,28,10,34,26.70
2015,06,28,10,35,26.80
2015,06,28,10,36,27.00
2015,06,28,10,37,27.20
2015,06,28,10,38,27.30
2015,06,28,10,39,27.50
2015,06,28,10,40,27.60
2015,06,28,10,41,27.70
2015,06,28,10,42,27.70
2015,06,28,10,43,27.70
2015,06,28,10,44,27.80
2015,06,28,10,45,27.90
2015,06,28,10,46,28.10
2015,06,28,10,47,28.20
2015,06,28,10,48,28.40
2015,06,28,10,49,28.70
2015,06,28,10,50,28.80
2015,06,28,10,51,29.00
2015,06,28,10,52,29.20
2015,06,28,10,53,29.40
2015,06,28,10,54,29.60
2015,06,28,10,55,29.70
2015,06,28,10,56,29.80
2015,06,28,10,57,29.90
2015,06,28,10,58,30.10
2015,06,28,10,59,30.20
2015,06,28,11,00,30.20
2015,06,28,11,01,30.30
2015,06,28,11,02,30.30
2015,06,28,11,03,30.30
2015,06,28,11,04,30.30
2015,06,28,11,05,30.30
2015,06,28,11,06,30.30
2015,06,28,11,07,30.20
2015,06,28,11,08,30.20
2015,06,28,11,09,30.10
2015,06,28,11,10,29.90
2015,06,28,11,11,29.90
2015,06,28,11,12,29.90
2015,06,28,11,13,29.80
2015,06,28,11,14,29.80
2015,06,28,11,15,29.80
2015,06,28,11,16,29.80
2015,06,28,11,17,29.90
2015,06,28,11,18,29.90
2015,06,28,11,19,29.90
2015,06,28,11,20,29.90
2015,06,28,11,21,29.90
2015,06,28,11,22,29.90
2015,06,28,11,23,30.00
2015,06,28,11,24,30.10
2015,06,28,11,25,30.00
2015,06,28,11,26,29.90
2015,06,28,11,27,29.70
2015,06,28,11,28,29.40
2015,06,28,11,29,29.30
2015,06,28,11,30,29.10
2015,06,28,11,31,28.90
2015,06,28,11,32,28.80
2015,06,28,11,33,28.80
2015,06,28,11,34,28.70
2015,06,28,11,35,28.70
2015,06,28,11,36,28.80
2015,06,28,11,37,28.70
2015,06,28,11,38,28.70
2015,06,28,11,39,28.70
2015,06,28,11,40,28.70
2015,06,28,11,41,28.60
2015,06,28,11,42,28.60
2015,06,28,11,43,28.50
2015,06,28,11,44,28.50
2015,06,28,11,45,28.40
2015,06,28,11,46,28.40
2015,06,28,11,47,28.40
2015,06,28,11,48,28.40
2015,06,28,11,49,28.30
2015,06,28,11,50,28.30
2015,06,28,11,51,28.30
2015,06,28,11,52,28.30
2015,06,28,11,53,28.20
2015,06,28,11,54,28.20
2015,06,28,11,55,28.20
2015,06,28,11,56,28.20
2015,06,28,11,57,28.30
2015,06,28,11,58,28.30
2015,06,28,11,59,28.20
2015,06,28,12,00,28.30
2015,06,28,12,01,28.30
2015,06,28,12,02,28.30
2015,06,28,12,03,28.30
2015,06,28,12,04,28.20
2015,06,28,12,05,28.20
2015,06,28,12,06,28.10
2015,06,28,12,07,28.00
2015,06,28,12,08,27.90
2015,06,28,12,09,27.80
2015,06,28,12,10,27.80
2015,06,28,12,11,27.80
2015,06,28,12,12,27.80
2015,06,28,12,13,27.80
2015,06,28,12,14,27.70
2015,06,28,12,15,27.70
2015,06,28,12,16,27.70
2015,06,28,12,17,27.80
2015,06,28,12,18,27.70
2015,06,28,12,19,27.70
2015,06,28,12,21,27.80
2015,06,28,12,22,27.80
2015,06,28,12,23,27.70
2015,06,28,12,24,27.70
2015,06,28,12,25,27.80
2015,06,28,12,26,27.80
2015,06,28,12,27,27.80
2015,06,28,12,28,27.90
2015,06,28,12,29,28.00
2015,06,28,12,30,27.90
2015,06,28,12,31,27.90
2015,06,28,12,32,27.80
2015,06,28,12,33,27.80
2015,06,28,12,34,27.70
2015,06,28,12,35,27.60
2015,06,28,12,36,27.40
2015,06,28,12,37,27.40
2015,06,28,12,38,27.40
2015,06,28,12,39,27.40
2015,06,28,12,40,27.60
2015,06,28,12,41,27.70
2015,06,28,12,42,27.70
2015,06,28,12,43,27.80
2015,06,28,12,44,27.80
2015,06,28,12,45,27.80
2015,06,28,12,46,27.90
2015,06,28,12,47,28.10
2015,06,28,12,48,28.20
2015,06,28,12,49,28.30
2015,06,28,12,50,28.40
2015,06,28,12,51,28.60
2015,06,28,12,52,28.80
2015,06,28,12,53,28.90
2015,06,28,12,54,29.00
2015,06,28,12,55,29.10
2015,06,28,12,56,29.00
2015,06,28,12,57,28.90
2015,06,28,12,58,28.90
2015,06,28,12,59,28.90
2015,06,28,13,00,28.90
2015,06,28,13,01,28.80
2015,06,28,13,02,28.80
2015,06,28,13,03,28.70
2015,06,28,13,04,28.60
2015,06,28,13,05,28.60
2015,06,28,13,06,28.60
2015,06,28,13,07,28.60
2015,06,28,13,08,28.60
2015,06,28,13,09,28.70
2015,06,28,13,10,28.70
2015,06,28,13,11,28.80
2015,06,28,13,12,28.80
2015,06,28,13,13,28.90
2015,06,28,13,14,28.90
2015,06,28,13,15,29.00
2015,06,28,13,16,29.10
2015,06,28,13,17,29.10
2015,06,28,13,18,29.10
2015,06,28,13,19,29.10
2015,06,28,13,20,29.10
2015,06,28,13,21,29.20
2015,06,28,13,22,29.20
2015,06,28,13,23,29.20
2015,06,28,13,24,29.30
2015,06,28,13,25,29.40
2015,06,28,13,26,29.60
2015,06,28,13,27,29.60
2015,06,28,13,28,29.50
2015,06,28,13,29,29.50
2015,06,28,13,30,29.50
2015,06,28,13,31,29.50
2015,06,28,13,32,29.60
2015,06,28,13,33,29.60
2015,06,28,13,34,29.70
2015,06,28,13,35,29.80
2015,06,28,13,36,29.80
2015,06,28,13,37,29.90
2015,06,28,13,38,30.00
2015,06,28,13,39,30.10
2015,06,28,13,40,30.10
2015,06,28,13,41,29.90
2015,06,28,13,42,29.80
2015,06,28,13,43,29.70
2015,06,28,13,44,29.60
2015,06,28,13,45,29.50
2015,06,28,13,46,29.30
2015,06,28,13,47,29.10
2015,06,28,13,48,28.90
2015,06,28,13,49,28.80
2015,06,28,13,50,28.80
2015,06,28,13,51,28.70
2015,06,28,13,52,28.60
2015,06,28,13,53,28.50
2015,06,28,13,54,28.30
2015,06,28,13,55,28.20
2015,06,28,13,56,28.10
2015,06,28,13,57,28.10
2015,06,28,13,58,28.00
2015,06,28,13,59,27.90
2015,06,28,14,00,27.90
2015,06,28,14,01,27.90
2015,06,28,14,02,27.90
2015,06,28,14,03,27.80
2015,06,28,14,04,27.80
2015,06,28,14,05,27.80
2015,06,28,14,06,27.80
2015,06,28,14,07,27.90
2015,06,28,14,08,27.90
2015,06,28,14,09,27.90
2015,06,28,14,10,27.90
2015,06,28,14,11,27.90
2015,06,28,14,12,28.00
2015,06,28,14,13,28.00
2015,06,28,14,14,28.10
2015,06,28,14,15,28.10
2015,06,28,14,16,28.20
2015,06,28,14,17,28.30
2015,06,28,14,18,28.40
2015,06,28,14,19,28.60
2015,06,28,14,20,28.70
2015,06,28,14,21,28.90
2015,06,28,14,22,29.10
2015,06,28,14,23,29.20
2015,06,28,14,24,29.40
2015,06,28,14,25,29.50
2015,06,28,14,26,29.60
2015,06,28,14,27,29.70
2015,06,28,14,28,29.80
2015,06,28,14,29,29.80
2015,06,28,14,30,29.90
2015,06,28,14,31,30.10
2015,06,28,14,32,30.20
2015,06,28,14,33,30.30
2015,06,28,14,34,30.40
2015,06,28,14,35,30.50
2015,06,28,14,36,30.60
2015,06,28,14,37,30.60
2015,06,28,14,38,30.70
2015,06,28,14,39,30.70
2015,06,28,14,40,30.70
2015,06,28,14,41,30.70
2015,06,28,14,42,30.80
2015,06,28,14,43,30.80
2015,06,28,14,44,30.80
2015,06,28,14,45,30.70
2015,06,28,14,46,30.60
2015,06,28,14,47,30.60
2015,06,28,14,48,30.60
2015,06,28,14,49,30.60
2015,06,28,14,50,30.40
2015,06,28,14,51,30.40
2015,06,28,14,52,30.30
2015,06,28,14,53,30.20
2015,06,28,14,54,30.10
2015,06,28,14,55,29.80
2015,06,28,14,56,29.40
2015,06,28,14,57,28.80
2015,06,28,14,58,28.30
2015,06,28,14,59,27.60
2015,06,28,15,00,26.70
2015,06,28,15,01,25.80
2015,06,28,15,02,25.30
2015,06,28,15,03,24.90
2015,06,28,15,04,24.60
2015,06,28,15,05,24.40
2015,06,28,15,06,23.90
2015,06,28,15,07,23.40
2015,06,28,15,08,23.10
2015,06,28,15,09,22.90
2015,06,28,15,10,22.80
2015,06,28,15,11,22.80
2015,06,28,15,12,22.80
2015,06,28,15,13,22.90
2015,06,28,15,14,22.90
2015,06,28,15,15,23.00
2015,06,28,15,16,23.10
2015,06,28,15,17,23.30
2015,06,28,15,18,23.40
2015,06,28,15,19,23.60
2015,06,28,15,20,23.80
2015,06,28,15,21,24.00
2015,06,28,15,22,24.20
2015,06,28,15,23,24.20
2015,06,28,15,24,23.80
2015,06,28,15,25,23.60
2015,06,28,15,26,23.30
2015,06,28,15,27,23.20
2015,06,28,15,28,23.00
2015,06,28,15,29,22.80
2015,06,28,15,30,22.60
2015,06,28,15,31,22.40
2015,06,28,15,32,22.30
2015,06,28,15,33,22.20
2015,06,28,15,34,22.00
2015,06,28,15,35,21.80
2015,06,28,15,36,21.70
2015,06,28,15,37,21.70
2015,06,28,15,38,21.70
2015,06,28,15,39,21.70
2015,06,28,15,40,21.70
2015,06,28,15,41,21.70
2015,06,28,15,42,21.70
2015,06,28,15,43,21.80
2015,06,28,15,44,22.00
2015,06,28,15,45,22.10
2015,06,28,15,46,22.20
2015,06,28,15,47,22.30
2015,06,28,15,48,22.40
2015,06,28,15,49,22.40
2015,06,28,15,50,22.40
2015,06,28,15,51,22.50
2015,06,28,15,52,22.60
2015,06,28,15,53,22.60
2015,06,28,15,54,22.70
2015,06,28,15,55,22.80
2015,06,28,15,56,22.80
2015,06,28,15,57,22.90
2015,06,28,15,58,22.90
2015,06,28,15,59,22.90
2015,06,28,16,00,23.00
2015,06,28,16,01,23.00
2015,06,28,16,02,23.10
2015,06,28,16,03,23.20
2015,06,28,16,04,23.20
2015,06,28,16,05,23.30
2015,06,28,16,06,23.30
2015,06,28,16,07,23.20
2015,06,28,16,08,23.10
2015,06,28,16,09,23.00
2015,06,28,16,10,23.00
2015,06,28,16,11,23.00
2015,06,28,16,12,23.10
2015,06,28,16,13,23.00
2015,06,28,16,14,23.10
2015,06,28,16,15,23.10
2015,06,28,16,16,23.10
2015,06,28,16,17,22.90
2015,06,28,16,18,22.90
2015,06,28,16,19,22.80
2015,06,28,16,20,22.80
2015,06,28,16,21,22.60
2015,06,28,16,22,22.50
2015,06,28,16,23,22.40
2015,06,28,16,24,22.40
2015,06,28,16,25,22.40
2015,06,28,16,26,22.40
2015,06,28,16,27,22.50
2015,06,28,16,28,22.60
2015,06,28,16,29,22.70
2015,06,28,16,30,22.70
2015,06,28,16,31,22.60
2015,06,28,16,32,22.50
2015,06,28,16,33,22.60
2015,06,28,16,34,22.60
2015,06,28,16,35,22.60
2015,06,28,16,36,22.60
2015,06,28,16,37,22.40
2015,06,28,16,38,22.30
2015,06,28,16,39,22.20
2015,06,28,16,40,22.10
2015,06,28,16,41,22.00
2015,06,28,16,42,22.00
2015,06,28,16,43,21.90
2015,06,28,16,44,21.90
2015,06,28,16,45,21.90
2015,06,28,16,46,21.90
2015,06,28,16,47,21.80
2015,06,28,16,48,21.80
2015,06,28,16,49,21.80
2015,06,28,16,50,21.80
2015,06,28,16,51,21.80
2015,06,28,16,52,21.80
2015,06,28,16,53,21.80
2015,06,28,16,54,21.80
2015,06,28,16,55,21.90
2015,06,28,16,56,21.90
2015,06,28,16,57,22.00
2015,06,28,16,58,22.10
2015,06,28,16,59,22.20
2015,06,28,17,00,22.30
2015,06,28,17,01,22.40
2015,06,28,17,02,22.50
2015,06,28,17,03,22.60
2015,06,28,17,04,22.70
2015,06,28,17,05,22.70
2015,06,28,17,06,22.70
2015,06,28,17,07,22.70
2015,06,28,17,08,22.70
2015,06,28,17,09,22.80
2015,06,28,17,10,22.80
2015,06,28,17,11,22.90
2015,06,28,17,12,23.00
2015,06,28,17,13,23.10
2015,06,28,17,14,23.20
2015,06,28,17,15,23.30
2015,06,28,17,16,23.30
2015,06,28,17,17,23.30
2015,06,28,17,18,23.10
2015,06,28,17,19,23.10
2015,06,28,17,20,23.10
2015,06,28,17,21,23.10
2015,06,28,17,22,23.00
2015,06,28,17,23,23.00